BLOCK DM-SL R/B, 54034

Orbit data source: Space-Track

BLOCK DM-SL R/B, 54034 is space debris in GEO originally from a launch on Wed, 12 Oct 2022 UTC launched from the Tyuratam Missile And Space Complex (TTMTR). Debris objects in space refer to the collection of defunct objects orbiting the Earth. Examples of debris include non-operational satellites, rocket bodies, and fragments generated from explosions, collisions, or faulty payload assembly.

Not visible in the next 10 days
Identifier
54034, 2022-131B
Orbit
GEO
Country
Flag of CISCIS
Related business
Manufacturer
RKKE
Mission
Spacecraft
Bus & Motor
BLOK DM2, 11D58M
Mass
2,440 kg wet, 2,440 kg dry
Launch date (UTC)
2022-10-12 (3 years ago)
Launch vehicle
Unknown
Launch site
Tyuratam Missile And Space Complex (TTMTR)
Object type
Payload
Rocket body
Debris
Shape & HBR
Cyl, 3.5 m
Radar Cross Section
26.008 m², Medium (>0.1 m² and < 1m²)

Expand to show TLE details & history
Last TLE update: 8 hours ago

TLE from 8 hours ago
0 BLOCK DM-SL R/B
1 54034U 22131B   25346.94518353 -.00000103  00000-0  00000-0 0  9998
2 54034   2.8971  81.3404 0076713  33.8550 326.2552  0.97749477 11307
Epoch: 2025-12-12T22:41Z
TLE epoch observation values (Epoch: 2025-12-12T22:41:03.856Z)
Latitude
-0°
Longitude
18.81089°
Altitude
36,234.563 km
Speed
3.068 km/s
True Right ascension
05h 23m 49s
True Declination
0° 00' 00"
Sunlit
Object was in daylight at epoch
Visualization orbit readout
Latitude
Unknown
Longitude
Unknown
Altitude
Unknown
Speed
Unknown
Apparent Right ascension
Unknown
Apparent Declination
Unknown
Sunlit
N/A
Visualization observer readout
Local Sidereal Time
05:23:53
Azimuth
Unknown
Elevation
Unknown
Doppler factor
Unknown
Orbital elements
Apogee altitude
36,838.907 km
Perigee altitude
36,180.893 km
Semi-major axis
42,888.037 km
Eccentricity
0.00767
Inclination
2.8971°
RAAN
81.3404°
Arg. of periapsis
33.855°
True anomaly
325.76297°
Mean anomaly
326.2552°
Eccentric anomaly
326.00948°
Mean motion
0.24436 °/min
Orbital period
1,473.21 mins
BSTAR
0
Loading maneuver chart data...
Computing Atmospheric mass density...
Loading historical data...
Loading historical data...
Loading historical data...
Loading historical data...
Loading historical data...
Loading historical data...
Loading historical data...
Other satellites on launch #131 in the year 2022 (2022-10-12 UTC)

Documentation

Showing up to 5 results
|